• In Belarus
  • List of Countries
  • For 7 days
  • Water Temperature
  • Satellite Maps
  • Weather Map
  • Weather Widgets
  • user-avatar
    Login

    Hourly Weather Samusenki

    Today, 22 April, Monday

    Time Temperature Precipitation Wind Pressure Humidity
    00:00 +10°C° 0 mm 1 mps 753 mmHg 66%
    01:00 +10°C° 0 mm 1 mps 753 mmHg 67%
    02:00 +8°C° 0 mm 1 mps 753 mmHg 74%
    03:00 +8°C° 0 mm 1 mps 753 mmHg 74%
    04:00 +8°C° 0 mm 1 mps 754 mmHg 74%
    05:00 +7°C° 0 mm 0 mps 754 mmHg 74%
    06:00 +8°C° 0 mm 0 mps 754 mmHg 69%
    07:00 +10°C° 0 mm 0 mps 754 mmHg 64%
    08:00 +13°C° 0 mm 0 mps 755 mmHg 54%
    09:00 +14°C° 0 mm 0 mps 755 mmHg 48%
    10:00 +16°C° 0 mm 0 mps 755 mmHg 41%
    11:00 +18°C° 0 mm 0 mps 755 mmHg 35%
    12:00 +18°C° 0 mm 0 mps 755 mmHg 34%
    13:00 +18°C° 0 mm 0 mps 755 mmHg 33%
    14:00 +17°C° 0 mm 0 mps 755 mmHg 32%
    15:00 +17°C° 0 mm 0 mps 755 mmHg 33%
    16:00 +17°C° 0 mm 0 mps 754 mmHg 33%
    17:00 +16°C° 0 mm 0 mps 754 mmHg 34%
    18:00 +14°C° 0 mm 0 mps 754 mmHg 39%
    19:00 +13°C° 0 mm 0 mps 755 mmHg 44%
    20:00 +11°C° 0 mm 0 mps 755 mmHg 49%
    21:00 +10°C° 0 mm 0 mps 755 mmHg 51%
    22:00 +10°C° 0 mm 0 mps 755 mmHg 52%
    23:00 +9°C° 0 mm 0 mps 755 mmHg 54%

    Tomorrow, 23 April, Tuesday

    Time Temperature Precipitation Wind Pressure Humidity
    00:00 +9°C° 0 mm 0 mps 756 mmHg 56%
    01:00 +8°C° 0 mm 0 mps 756 mmHg 57%
    02:00 +8°C° 0 mm 0 mps 756 mmHg 59%
    03:00 +7°C° 0 mm 0 mps 756 mmHg 61%
    04:00 +7°C° 0 mm 0 mps 756 mmHg 62%
    05:00 +7°C° 0 mm 0 mps 756 mmHg 63%
    06:00 +9°C° 0 mm 0 mps 756 mmHg 57%
    07:00 +12°C° 0 mm 1 mps 756 mmHg 52%
    08:00 +15°C° 0 mm 1 mps 757 mmHg 46%
    09:00 +16°C° 0 mm 1 mps 757 mmHg 41%
    10:00 +18°C° 0 mm 1 mps 757 mmHg 36%
    11:00 +20°C° 0 mm 1 mps 757 mmHg 31%
    12:00 +20°C° 0 mm 1 mps 756 mmHg 31%
    13:00 +20°C° 0 mm 1 mps 756 mmHg 30%
    14:00 +21°C° 0 mm 1 mps 756 mmHg 29%
    15:00 +20°C° 0 mm 1 mps 756 mmHg 30%
    16:00 +20°C° 0 mm 1 mps 755 mmHg 32%
    17:00 +20°C° 0 mm 1 mps 755 mmHg 33%
    18:00 +18°C° 0 mm 1 mps 755 mmHg 39%
    19:00 +15°C° 0 mm 1 mps 755 mmHg 44%
    20:00 +13°C° 0 mm 1 mps 755 mmHg 50%
    21:00 +12°C° 0 mm 1 mps 755 mmHg 51%
    22:00 +11°C° 0 mm 1 mps 755 mmHg 53%
    23:00 +11°C° 0 mm 1 mps 755 mmHg 55%

    Day after tomorrow, 24 April, Wednesday

    Time Temperature Precipitation Wind Pressure Humidity
    00:00 +10°C° 0 mm 1 mps 756 mmHg 56%
    01:00 +10°C° 0 mm 1 mps 756 mmHg 58%
    02:00 +9°C° 0 mm 1 mps 756 mmHg 59%
    03:00 +9°C° 0 mm 1 mps 756 mmHg 61%
    04:00 +9°C° 0 mm 1 mps 756 mmHg 62%
    05:00 +7°C° 0 mm 0 mps 756 mmHg 64%
    06:00 +10°C° 0 mm 0 mps 756 mmHg 58%
    07:00 +12°C° 0 mm 0 mps 756 mmHg 52%
    08:00 +15°C° 0 mm 0 mps 756 mmHg 46%
    09:00 +17°C° 0 mm 0 mps 756 mmHg 41%
    10:00 +19°C° 0 mm 0 mps 756 mmHg 37%
    11:00 +21°C° 0 mm 0 mps 756 mmHg 32%
    12:00 +21°C° 0 mm 0 mps 756 mmHg 31%
    13:00 +21°C° 0 mm 0 mps 756 mmHg 31%
    14:00 +22°C° 0 mm 0 mps 755 mmHg 30%
    15:00 +21°C° 0 mm 0 mps 755 mmHg 31%
    16:00 +20°C° 0 mm 0 mps 755 mmHg 32%
    17:00 +20°C° 0 mm 0 mps 754 mmHg 34%
    18:00 +17°C° 0 mm 0 mps 754 mmHg 39%
    19:00 +15°C° 0 mm 0 mps 754 mmHg 45%
    20:00 +13°C° 0 mm 0 mps 754 mmHg 51%
    21:00 +13°C° 0 mm 0 mps 754 mmHg 53%
    22:00 +12°C° 0 mm 0 mps 754 mmHg 56%
    23:00 +12°C° 0 mm 1 mps 754 mmHg 59%

    25 April, Thursday

    Time Temperature Precipitation Wind Pressure Humidity
    00:00 +11°C° 0 mm 0 mps 754 mmHg 60%
    01:00 +11°C° 0 mm 0 mps 755 mmHg 61%
    02:00 +10°C° 0 mm 0 mps 755 mmHg 62%
    03:00 +11°C° 0 mm 0 mps 755 mmHg 61%
    04:00 +11°C° 0 mm 0 mps 755 mmHg 60%
    05:00 +12°C° 0 mm 0 mps 755 mmHg 59%
    06:00 +13°C° 0 mm 0 mps 755 mmHg 57%
    07:00 +14°C° 0 mm 0 mps 755 mmHg 54%
    08:00 +15°C° 0 mm 0 mps 755 mmHg 52%
    09:00 +19°C° 0 mm 1 mps 755 mmHg 46%
    10:00 +21°C° 0 mm 1 mps 754 mmHg 41%
    11:00 +22°C° 0 mm 1 mps 754 mmHg 36%
    12:00 +21°C° 0 mm 2 mps 754 mmHg 37%
    13:00 +21°C° 0 mm 2 mps 754 mmHg 37%
    14:00 +20°C° 0 mm 2 mps 753 mmHg 38%
    15:00 +21°C° 0 mm 1 mps 753 mmHg 42%
    16:00 +20°C° 0 mm 1 mps 753 mmHg 46%
    17:00 +20°C° 0 mm 1 mps 752 mmHg 50%
    18:00 +19°C° 0 mm 1 mps 752 mmHg 53%
    19:00 +18°C° 0 mm 1 mps 752 mmHg 55%
    20:00 +15°C° 0 mm 1 mps 752 mmHg 58%
    21:00 +15°C° 0 mm 1 mps 752 mmHg 61%
    22:00 +14°C° 0 mm 1 mps 752 mmHg 63%
    23:00 +13°C° 0 mm 1 mps 752 mmHg 66%

    26 April, Friday

    Time Temperature Precipitation Wind Pressure Humidity
    00:00 +12°C° 0 mm 1 mps 752 mmHg 67%
    01:00 +12°C° 0 mm 1 mps 752 mmHg 68%
    02:00 +11°C° 0 mm 1 mps 752 mmHg 69%
    03:00 +11°C° 0 mm 1 mps 751 mmHg 69%
    04:00 +11°C° 0 mm 1 mps 751 mmHg 70%
    05:00 +11°C° 0 mm 1 mps 751 mmHg 70%
    06:00 +13°C° 0 mm 1 mps 751 mmHg 63%
    07:00 +15°C° 0 mm 1 mps 751 mmHg 57%
    08:00 +18°C° 0 mm 1 mps 751 mmHg 51%
    09:00 +18°C° 0 mm 2 mps 751 mmHg 45%
    10:00 +19°C° 0 mm 2 mps 750 mmHg 40%
    11:00 +21°C° 0 mm 2 mps 750 mmHg 35%
    12:00 +21°C° 0 mm 2 mps 750 mmHg 35%
    13:00 +21°C° 0 mm 2 mps 750 mmHg 34%
    14:00 +21°C° 0 mm 2 mps 749 mmHg 34%
    15:00 +21°C° 0 mm 2 mps 749 mmHg 36%
    16:00 +21°C° 0 mm 2 mps 749 mmHg 38%
    17:00 +20°C° 0 mm 2 mps 748 mmHg 41%
    18:00 +18°C° 0 mm 2 mps 748 mmHg 47%
    19:00 +16°C° 0 mm 1 mps 748 mmHg 53%
    20:00 +15°C° 0 mm 1 mps 748 mmHg 60%
    21:00 +14°C° 0 mm 1 mps 748 mmHg 63%
    22:00 +14°C° 0 mm 2 mps 747 mmHg 67%
    23:00 +13°C° 0 mm 2 mps 747 mmHg 71%

    27 April, Saturday

    Time Temperature Precipitation Wind Pressure Humidity
    00:00 +13°C° 0 mm 2 mps 747 mmHg 73%
    01:00 +12°C° 0 mm 2 mps 747 mmHg 76%
    02:00 +12°C° 0 mm 2 mps 747 mmHg 78%
    03:00 +12°C° 0 mm 2 mps 747 mmHg 79%
    04:00 +12°C° 0 mm 2 mps 746 mmHg 80%
    05:00 +10°C° 0 mm 2 mps 746 mmHg 81%
    06:00 +13°C° 0 mm 2 mps 746 mmHg 73%
    07:00 +15°C° 0 mm 2 mps 746 mmHg 66%
    08:00 +17°C° 0 mm 2 mps 746 mmHg 58%
    09:00 +18°C° 0 mm 3 mps 746 mmHg 52%
    10:00 +19°C° 0 mm 3 mps 746 mmHg 45%
    11:00 +21°C° 0 mm 4 mps 745 mmHg 39%
    12:00 +21°C° 0 mm 4 mps 745 mmHg 41%
    13:00 +21°C° 0 mm 4 mps 745 mmHg 43%
    14:00 +22°C° 0 mm 4 mps 745 mmHg 45%
    15:00 +21°C° 0 mm 3 mps 744 mmHg 47%
    16:00 +21°C° 0 mm 3 mps 744 mmHg 49%
    17:00 +21°C° 0 mm 3 mps 743 mmHg 52%
    18:00 +19°C° 0 mm 3 mps 743 mmHg 57%
    19:00 +18°C° 0 mm 3 mps 743 mmHg 62%
    20:00 +17°C° 0 mm 3 mps 743 mmHg 67%
    21:00 +16°C° 0.8 mm 3 mps 743 mmHg 72%
    22:00 +16°C° 0.8 mm 3 mps 743 mmHg 77%
    23:00 +14°C° 0.8 mm 3 mps 742 mmHg 81%
    Show more